TimeCST,TemperatureF,Dew PointF,Humidity,Sea Level PressureIn,VisibilityMPH,Wind Direction,Wind SpeedMPH,Gust SpeedMPH,PrecipitationIn,Events,Conditions,WindDirDegrees,DateUTC
12:54 AM,26.1,17.1,69,30.14,10.0,North,12.7,-,0.00,Snow,Light Snow,360,2013-03-01 06:54:00
1:54 AM,26.1,17.1,69,30.13,9.0,North,11.5,-,0.00,Snow,Light Snow,360,2013-03-01 07:54:00
2:54 AM,25.0,19.0,78,30.12,9.0,North,15.0,-,0.00,Snow,Light Snow,360,2013-03-01 08:54:00
3:24 AM,24.8,19.4,80,30.10,9.0,North,15.0,-,N/A,Snow,Light Snow,350,2013-03-01 09:24:00
3:54 AM,25.0,19.0,78,30.13,9.0,North,12.7,-,0.00,Snow,Light Snow,360,2013-03-01 09:54:00
4:30 AM,24.8,19.4,80,30.11,9.0,North,11.5,-,0.00,Snow,Light Snow,360,2013-03-01 10:30:00
4:54 AM,25.0,19.0,78,30.14,9.0,North,13.8,-,0.00,Snow,Light Snow,360,2013-03-01 10:54:00
5:54 AM,24.8,19.4,80,30.13,7.0,North,15.0,21.9,N/A,Snow,Light Snow,10,2013-03-01 11:54:00
6:54 AM,24.1,19.0,81,30.18,5.0,North,17.3,21.9,0.00,Snow,Light Snow,10,2013-03-01 12:54:00
7:54 AM,25.0,19.0,78,30.19,5.0,North,16.1,-,0.00,Snow,Light Snow,10,2013-03-01 13:54:00
8:54 AM,24.1,19.0,81,30.19,4.0,North,16.1,-,0.00,Snow,Light Snow,360,2013-03-01 14:54:00
9:23 AM,24.8,19.4,80,30.17,5.0,North,15.0,-,0.00,Snow,Light Snow,360,2013-03-01 15:23:00
9:54 AM,25.0,19.9,81,30.21,5.0,North,16.1,-,0.00,Snow,Light Snow,10,2013-03-01 15:54:00
10:54 AM,25.0,19.0,78,30.21,4.0,North,19.6,-,0.00,Snow,Light Snow,10,2013-03-01 16:54:00
11:50 AM,24.8,19.4,80,30.19,6.0,North,17.3,-,0.00,Snow,Light Snow,10,2013-03-01 17:50:00
11:54 AM,25.0,19.9,81,30.23,6.0,NNE,17.3,-,0.00,Snow,Light Snow,20,2013-03-01 17:54:00
12:54 PM,25.0,19.0,78,30.22,7.0,NNE,17.3,-,0.00,Snow,Light Snow,30,2013-03-01 18:54:00
1:39 PM,24.8,19.4,80,30.18,8.0,North,18.4,-,0.00,Snow,Light Snow,10,2013-03-01 19:39:00
1:54 PM,25.0,19.0,78,30.22,8.0,NNE,18.4,-,0.00,Snow,Light Snow,20,2013-03-01 19:54:00
2:54 PM,25.0,18.0,75,30.22,10.0,North,18.4,-,0.00,Snow,Light Snow,360,2013-03-01 20:54:00
3:54 PM,25.0,18.0,75,30.22,10.0,North,16.1,-,0.00,Snow,Light Snow,10,2013-03-01 21:54:00
4:54 PM,25.0,17.1,72,30.25,10.0,North,13.8,-,0.00,,Overcast,360,2013-03-01 22:54:00
5:54 PM,25.0,17.1,72,30.26,10.0,North,13.8,-,0.00,Snow,Light Snow,350,2013-03-01 23:54:00
6:54 PM,25.0,16.0,69,30.27,10.0,North,15.0,-,0.00,Snow,Light Snow,10,2013-03-02 00:54:00
7:54 PM,25.0,16.0,69,30.27,10.0,North,13.8,-,0.00,Snow,Light Snow,350,2013-03-02 01:54:00
8:28 PM,24.8,15.8,69,30.24,10.0,NNE,11.5,-,0.00,,Mostly Cloudy,30,2013-03-02 02:28:00
8:54 PM,25.0,16.0,69,30.28,10.0,NNW,6.9,-,0.00,,Mostly Cloudy,340,2013-03-02 02:54:00
9:54 PM,21.9,15.1,75,30.27,10.0,NNW,5.8,-,N/A,,Scattered Clouds,340,2013-03-02 03:54:00
10:54 PM,19.9,12.9,74,30.26,10.0,NNW,9.2,-,N/A,,Scattered Clouds,330,2013-03-02 04:54:00
11:13 PM,21.2,14.0,74,30.22,10.0,NNW,9.2,-,0.00,Snow,Light Snow,340,2013-03-02 05:13:00
11:54 PM,21.9,14.0,72,30.25,10.0,North,11.5,-,0.00,Snow,Light Snow,350,2013-03-02 05:54:00